DECAYED

DMSP 5D-2 F11 DEB, 28333 (Decayed)

Orbit data source: Space-Track

DMSP 5D-2 F11 DEB, 28333 was space debris in SSO originally from a launch on Thu, 28 Nov 1991 UTC launched from the Air Force Western Test Range (AFWTR). Debris objects in space refer to the collection of defunct objects orbiting the Earth. Examples of debris include non-operational satellites, rocket bodies, and fragments generated from explosions, collisions, or faulty payload assembly.

Not visible in the next 10 days
Identifier
28333, 1991-082AW
Orbit
Decayed
Country
Flag of USUS
Related business
Manufacturer
Unknown
Mission
Decayed spacecraft
Bus & Motor
Unknown
Mass
Unknown
Launch date (UTC)
1991-11-28 (34 years ago)
Launch vehicle
Unknown
Launch site
Air Force Western Test Range (AFWTR)
Object type
Payload
Rocket body
Debris
Shape & HBR
Unknown shape, 0.1 m
Radar Cross Section
Small (<0.1 m²)

Expand to show TLE details & history
Last TLE update: 3 months ago

TLE from 3 months ago
0 DMSP 5D-2 F11 DEB
1 28333U 91082AW  26035.16525670  .00971016  00000-0  14780-1 0  9992
2 28333  98.4998 160.6397 0019403 298.7324 183.0850 15.51875230137555
Epoch: 2026-02-04T03:57Z
TLE epoch observation values (Epoch: 2026-02-04T03:57:58.178Z)
Latitude
57.29894°
Longitude
160.19608°
Altitude
434.047 km
Speed
7.649 km/s
True Right ascension
23h 36m 05s
True Declination
57° 08' 06"
Sunlit
Object was in daylight at epoch
Visualization orbit readout
Latitude
Unknown
Longitude
Unknown
Altitude
Unknown
Speed
Unknown
Apparent Right ascension
Unknown
Apparent Declination
Unknown
Sunlit
N/A
Visualization observer readout
Local Sidereal Time
20:53:22
Azimuth
Unknown
Elevation
Unknown
Doppler factor
Unknown
Orbital elements
Apogee altitude
421.393 km
Perigee altitude
395.058 km
Semi-major axis
6,786.363 km
Eccentricity
0.00194
Inclination
98.4998°
RAAN
160.6397°
Arg. of periapsis
298.7324°
True anomaly
183.07306°
Mean anomaly
183.085°
Eccentric anomaly
183.07903°
Mean motion
3.88229 °/min
Orbital period
92.73 mins
BSTAR
0.01478
Loading maneuver chart data...
Computing Atmospheric mass density...

Documentation

Showing up to 5 results
|